Regional Weather Roundup
Issued by NWS

Home | Current Version | Previous Version | Graphics & Text | Print | Product List | Glossary Off
Versions: 1 2 3 4 5 6 7 8 9 10 11 12 13 14 15 16 17 18 19 20 21 22 23 24 25 26 27 28 29 30 31 32 33 34 35 36 37 38 39 40 41 42 43 44 45 46 47 48 49 50

000
ASUS43 KTOP 180208
RWRKS

WEATHER ROUNDUP FOR KANSAS
NATIONAL WEATHER SERVICE GOODLAND KS
900 PM CDT WED SEP 17 2014

NOTE:  "FAIR" INDICATES FEW OR NO CLOUDS BELOW 12,000 FEET WITH NO
SIGNIFICANT WEATHER AND/OR OBSTRUCTIONS TO VISIBILITY.

KSZ001>006-013>018-027>032-041>047-180300-
NORTHWEST KANSAS

CITY           SKY/WX    TMP DP  RH WIND       PRES   REMARKS
GOODLAND       PTCLDY    66  56  70 S9        29.94R
HAYS           PTCLDY    75  64  69 E13       29.88R
HILL CITY      MOCLDY    74  66  76 E9        29.89R
RUSSELL        PTCLDY    74  67  78 NE10      29.86R
$$

KSZ061>065-074>080-084>089-180300-
SOUTHWEST KANSAS

CITY           SKY/WX    TMP DP  RH WIND       PRES   REMARKS
DODGE CITY     MOCLDY    77  57  50 S7        29.87R
ELKHART          N/A     73  58  59 SW7         N/A
GARDEN CITY    CLOUDY    73  59  61 S7        29.88R
GREAT BEND     CLEAR     79  66  65 E10       29.86R
LIBERAL        CLOUDY    75  57  53 S8        29.92S
PRATT          MOCLDY    73  57  56 S9        29.86R
$$

KSZ066>073-081>083-090>101-180300-
SOUTHEAST KANSAS

CITY           SKY/WX    TMP DP  RH WIND       PRES   REMARKS
CHANUTE        CLEAR     75  71  87 E8        29.87R
COFFEYVILLE    PTCLDY    74  62  66 S9        29.85R
HUTCHINSON     CLEAR     79  69  71 E12       29.85R
MEDICINE LODGE   N/A     83  62  49 S6        29.83R
NEWTON         CLEAR     73  64  73 E9        29.90R
PARSONS        CLEAR     74  64  71 VRB3      29.88R
WICHITA INTL   PTCLDY    82  61  48 NE8       29.83R
WICHITA JABRA  PTCLDY    78  69  73 E13       29.85R
WICHITA MCCONL MOCLDY    83  67  56 E9        29.85R
WINFIELD       MOCLDY    80  67  64 S9        29.85R
$$

KSZ007>012-019>026-033>040-048>060-102>105-180300-
NORTHEAST KANSAS

CITY           SKY/WX    TMP DP  RH WIND       PRES   REMARKS
CONCORDIA      CLEAR     69  66  90 E9        29.90R
EMPORIA        CLEAR     71  67  87 NE8       29.89R
LAWRENCE       CLEAR     65  62  90 E3        29.91R
MANHATTAN      CLEAR     68  65  90 NE5       29.90R
MARYSVILLE     CLEAR     64  63  94 E3        29.92R
OLATHE IND     CLEAR     67  64  90 E5        29.92R
OLATHE EXE     PTCLDY    66  64  93 E5        29.91R
SALINA         CLEAR     76  66  71 E13       29.87R
TOPEKA BILLARD CLEAR     68  66  93 E6        29.91R
TOPEKA FORBES  PTCLDY    67  64  90 NE6       29.91R
$$



USA.gov is the U.S. government's official web portal to all federal, state and local government web resources and services.